PEGASUS DEB, 39308

Orbit data source: Space-Track

PEGASUS DEB, 39308 is space debris in LEO originally from a launch on Thu, 19 May 1994 UTC launched from the Air Force Western Test Range (AFWTR). Debris objects in space refer to the collection of defunct objects orbiting the Earth. Examples of debris include non-operational satellites, rocket bodies, and fragments generated from explosions, collisions, or faulty payload assembly.

Loading next visibility...
Identifier
39308, 1994-029AET
Orbit
LEO
Country
Flag of USUS
Related business
Manufacturer
Unknown
Mission
Spacecraft
Bus & Motor
Unknown
Mass
Unknown
Launch date (UTC)
1994-05-19 (32 years ago)
Launch vehicle
Unknown
Launch site
Air Force Western Test Range (AFWTR)
Object type
Payload
Rocket body
Debris
Shape & HBR
Unknown shape, 0.1 m
Radar Cross Section
Small (<0.1 m²)

Expand to show TLE details & history
Last TLE update: 4 days ago

TLE from 4 days ago
0 PEGASUS DEB
1 39308U 94029AET 26044.98191957  .00004875  00000-0  90133-3 0  9995
2 39308  81.9668 136.7147 0343778  36.5193 325.8908 14.33487242663065
Epoch: 2026-02-13T23:33Z
TLE epoch observation values (Epoch: 2026-02-13T23:33:57.850Z)
Latitude
-0.00004°
Longitude
-0.78787°
Altitude
582.038 km
Speed
7.675 km/s
True Right ascension
09h 06m 51s
True Declination
0° 00' 00"
Sunlit
Object was in full shadow at epoch
Visualization orbit readout
Latitude
Unknown
Longitude
Unknown
Altitude
Unknown
Speed
Unknown
Apparent Right ascension
Unknown
Apparent Declination
Unknown
Sunlit
N/A
Visualization observer readout
Local Sidereal Time
06:41:02
Azimuth
Unknown
Elevation
Unknown
Doppler factor
Unknown
Orbital elements
Apogee altitude
1,023.187 km
Perigee altitude
531.217 km
Semi-major axis
7,155.339 km
Eccentricity
0.03438
Inclination
81.9668°
RAAN
136.7147°
Arg. of periapsis
36.5193°
True anomaly
323.60093°
Mean anomaly
325.8908°
Eccentric anomaly
324.75411°
Mean motion
3.5859 °/min
Orbital period
100.39 mins
BSTAR
0.00090133
Loading maneuver chart data...
Computing Atmospheric mass density...

Documentation

Showing up to 5 results
|